Location: Saint-Maurice-d�Ard�che
(44.5216°N, 4.4002°E)
Time: 01:18:13
(UTC+00:00)

Resurs 01 Rocket - Pass Details

Date: 30 March 2020
Orbit: 635 x 644 km, 98.0° (Epoch: 29 May)

Event Time Altitude Azimuth Distance (km) Brightness Sun altitude
Exits shadow 20:16:31 56° 176° (S) 761 1.7 -22.4°
Maximum altitude 20:17:27 84° 258° (WSW) 645 1.5 -22.6°
Drops below altitude 10° 20:21:53 10° 346° (NNW) 2,032 4.8 -23.2°
Sets 20:24:06 0° 347° (NNW) 2,946 5.7 -23.6°
